Regional Weather Roundup
Issued by NWS

Home | Current Version | Previous Version | Text Only | Print | Product List | Glossary Off
Versions: 1 2 3 4 5 6 7 8 9 10 11 12 13 14 15 16 17 18 19 20 21 22 23 24 25 26 27 28 29 30 31 32 33 34 35 36 37 38 39 40 41 42 43 44 45 46 47 48 49 50

000
ASUS43 KIND 231659
RWRIN

WEATHER ROUNDUP FOR INDIANA
NATIONAL WEATHER SERVICE INDIANAPOLIS IN
100 PM EDT WED JUL 23 2014

NOTE: "FAIR" INDICATES FEW OR NO CLOUDS BELOW 12,000 FEET WITH NO
SIGNIFICANT WEATHER AND/OR OBSTRUCTIONS TO VISIBILITY.

* - STATION DOES NOT REPORT WEATHER SUCH AS PRECIPITATION OR FOG.

+ - STATION NOT QUALITY CONTROLLED BY THE NATIONAL WEATHER SERVICE.
    USE DATA WITH CAUTION...ESPECIALLY DEWPOINT AND RELATIVE
    HUMIDITY OBSERVATIONS.

INZ001>003-010>013-019-020-231800-
NORTHWEST INDIANA

CITY           SKY/WX    TMP DP  RH WIND       PRES   REMARKS
GARY /AIRPORT/ MOSUNNY   68  57  68 N16G32    30.17R
KNOX *+        PTSUNNY   71  59  66 N13       30.11S
MONTICELLO +   CLOUDY    73  64  73 N9G17     30.08F
VALPARAISO     PTSUNNY   69  59  70 N13G21    30.15R

$$

LMZ046-743>745-231800-
SOUTHERN LAKE MICHIGAN

STATION/POSITION TIME  TEMP WIND        PRES
                       AIR  DIR/SP/G
                 (UTC) (F)  (DEG/KT/KT) (MB)
MICHIGAN CITY    1600   64  340/ 23/ 26   N/A

$$

INZ004-005-014>016-021>024-231800-
NORTH CENTRAL INDIANA

CITY           SKY/WX    TMP DP  RH WIND       PRES   REMARKS
ELKHART        CLOUDY    68  57  68 NW8G18    30.12
GOSHEN         CLOUDY    69  60  73 N12       30.10R
SOUTH BEND     CLOUDY    70  57  63 N12       30.13R
WARSAW +       CLOUDY    66  63  88 N6        30.10S

$$

INZ006>009-017-018-025>027-231800-
NORTHEAST INDIANA

CITY           SKY/WX    TMP DP  RH WIND       PRES   REMARKS
ANGOLA *+      CLOUDY    70  61  73 N6        30.08S
FORT WAYNE     DRIZZLE   69  66  90 NW14      30.07R

$$

INZ028-029-035-036-043>045-051>053-231800-
WEST CENTRAL INDIANA

CITY           SKY/WX    TMP DP  RH WIND       PRES   REMARKS
GREENCASTLE +  CLOUDY    72  70  94 CALM      30.06S FOG
LAFAYETTE      CLOUDY    73  63  70 N16       30.08S
TERRE HAUTE    LGT RAIN  73  69  87 N10       30.06S FOG

$$

INZ030>032-037>040-046>048-054>057-064-065-231800-
CENTRAL INDIANA

CITY           SKY/WX    TMP DP  RH WIND       PRES   REMARKS
ANDERSON       CLOUDY    73  68  83 NW8       30.06F
COLUMBUS       MOSUNNY   72  72 100 CALM      30.04S
INDIANAPOLIS   CLOUDY    72  67  84 SW5       30.05R
-EAGLE CREEK   CLOUDY    71  67  87 NW3       30.05S
KOKOMO *+      CLOUDY    73  70  88 N16       30.07F
MT COMFORT *+  CLOUDY    75  75 100 W7        30.06S
SHELBYVILLE    CLOUDY    77  70  79 VRB3      30.04F

$$

INZ033-034-041-042-049-050-058-059-231800-
EAST CENTRAL INDIANA

CITY           SKY/WX    TMP DP  RH WIND       PRES   REMARKS
MUNCIE         CLOUDY    72  67  84 NW6       30.06S

$$

INZ060-061-067>069-081>083-085>088-231800-
SOUTHWEST INDIANA

CITY           SKY/WX    TMP DP  RH WIND       PRES   REMARKS
EVANSVILLE     CLOUDY    73  68  84 NW5       30.03F
HUNTINGBURG *+ CLOUDY    73  70  88 NE6       30.07S

$$

INZ062-063-066-070>080-084-089>092-231800-
SOUTH CENTRAL AND SOUTHEAST INDIANA

CITY           SKY/WX    TMP DP  RH WIND       PRES   REMARKS
BLOOMINGTON    CLOUDY    74  70  87 SW7       30.07F

$$



USA.gov is the U.S. government's official web portal to all federal, state and local government web resources and services.